Weather History for Guatemala Aeropuertola Aurora, Guatemala

Change the Weather History Date:

Friday, October 25, 2013

  Actual Average Record
Temperature  
Mean Temperature 69 °F -  
Max Temperature 77 °F 71 °F - ()
Min Temperature 61 °F 56 °F - ()
Cooling Degree Days 4    
Growing Degree Days 19 (Base 50)    
Moisture  
Dew Point 63 °F    
Average Humidity 86    
Maximum Humidity 100    
Minimum Humidity 65    
Precipitation  
Precipitation 0.00 in - - ()
Sea Level Pressure  
Sea Level Pressure 30.20 in    
Wind  
Wind Speed 8 mph ()    
Max Wind Speed 16 mph    
Max Gust Speed -    
Visibility 5.7 miles    
Events Rain    
T = Trace of Precipitation, MM = Missing Value Source: Averaged Metar Reports

Daily Weather History Graph

Daily Weather History Graph

Search for Another Location

Airport:

Trip Planner

Search our weather history database for the weather conditions in past years. The results will help you decide how hot, cold, wet, or windy it might be!

Date:

Astronomy

Oct. 25, 2013 Rise Set
Actual Time 5:55 AM CST 5:36 PM CST
Civil Twilight 5:33 AM CST 5:58 PM CST
Nautical Twilight 5:08 AM CST 6:23 PM CST
Astronomical Twilight 4:43 AM CST 6:48 PM CST
Moon 11:08 PM CST (10/25) 11:21 AM CST (10/25)
Length of Visible Light 12h 24m
Length of Day
11h 40m
Waning Gibbous, 62% of the Moon is Illuminated
Oct 25
Waning Gibbous
Oct 26
Last Quarter
Nov 3
New
Nov 9
First Quarter
Nov 17
Full

Hourly Weather History & Observations

Time (CST) Temp. Dew Point Humidity Pressure Visibility Wind Dir Wind Speed Gust Speed Precip Events Conditions
12:00 AM 62.6 °F 62.6 °F 100% 30.27 in 5.0 mi North 6.9 mph - N/A   Mostly Cloudy
1:00 AM 64.4 °F 62.6 °F 94% 30.24 in 4.3 mi North 6.9 mph - N/A   Mostly Cloudy
2:00 AM 62.6 °F 60.8 °F 94% 30.24 in 3.7 mi NNE 6.9 mph - N/A   Scattered Clouds
3:00 AM 62.6 °F 62.6 °F 100% 30.21 in 5.0 mi NNE 6.9 mph - N/A   Scattered Clouds
4:00 AM 62.6 °F 60.8 °F 94% 30.24 in 6.2 mi NNE 4.6 mph - N/A   Scattered Clouds
5:00 AM 62.6 °F 60.8 °F 94% 30.24 in 6.2 mi NNE 4.6 mph - N/A   Partly Cloudy
6:00 AM 63 °F 60 °F 89% 29.98 in 25 mi NNE 6.9 mph - -   Partly Cloudy
6:00 AM 62.6 °F 60.8 °F 94% 30.24 in 6.2 mi NNE 6.9 mph - N/A   Partly Cloudy
7:00 AM 62.6 °F 60.8 °F 94% 30.27 in 6.2 mi NNE 6.9 mph - N/A   Scattered Clouds
8:00 AM 66.2 °F 62.6 °F 88% 30.27 in 6.2 mi North 9.2 mph - N/A   Scattered Clouds
9:00 AM 68.0 °F 62.6 °F 83% 30.30 in 6.2 mi North 11.5 mph - N/A   Scattered Clouds
10:00 AM 69.8 °F 60.8 °F 73% 30.30 in 6.2 mi North 11.5 mph - N/A   Scattered Clouds
11:00 AM 71.6 °F 62.6 °F 73% 30.27 in 6.2 mi North 13.8 mph - N/A   Scattered Clouds
12:00 PM 73 °F 64 °F 65% 29.91 in 25 mi North 13.8 mph - -   Partly Cloudy
12:00 PM 73.4 °F 64.4 °F 73% 30.24 in 6.2 mi North 13.8 mph - N/A   Scattered Clouds
1:00 PM 73.4 °F 62.6 °F 69% 30.21 in 6.2 mi North 11.5 mph - N/A   Scattered Clouds
2:00 PM 77.0 °F 64.4 °F 65% 30.18 in 6.2 mi North 6.9 mph - N/A   Partly Cloudy
3:00 PM 71.6 °F 64.4 °F 78% 30.18 in 3.1 mi North 16.1 mph - N/A Rain Rain
3:08 PM - - N/A% - 6.2 mi North 16.1 mph - N/A   Light Drizzle
3:45 PM - - N/A% - 6.2 mi NNE 9.2 mph - N/A   Mostly Cloudy
4:00 PM 68.0 °F 64.4 °F 88% 30.15 in 6.2 mi NNE 9.2 mph - N/A   Mostly Cloudy
4:15 PM - - N/A% - 6.2 mi North 13.8 mph - N/A   Drizzle
5:00 PM 68.0 °F 62.6 °F 83% 30.18 in 6.2 mi NNE 9.2 mph - N/A   Scattered Clouds
6:00 PM 66.2 °F 64.4 °F 94% 30.21 in 6.2 mi North 9.2 mph - N/A   Mostly Cloudy
7:00 PM 66.2 °F 62.6 °F 88% 30.24 in 6.2 mi North 11.5 mph - N/A   Mostly Cloudy
7:05 PM - - N/A% - 5.0 mi North 11.5 mph - N/A   Light Drizzle
8:00 PM 66.2 °F 64.4 °F 94% 30.24 in 6.2 mi North 11.5 mph - N/A   Light Drizzle
9:00 PM 64.4 °F 62.6 °F 94% 30.27 in 5.0 mi North 9.2 mph - N/A   Light Drizzle
10:00 PM 75.2 °F 73.4 °F 94% 29.95 in 5.0 mi Calm Calm - N/A   Light Drizzle
11:00 PM 64.4 °F 62.6 °F 94% 30.27 in 5.0 mi North 6.9 mph - N/A   Light Drizzle